Previsão horária em Plotina

Hoje, 5 Março, Sexta-feira

Tempo Temperatura Precipitação Vento Pressão Humidade
00:00 0°C° 0 mm 8 m/s 750 mmHg 74%
01:00 0°C° 0 mm 8 m/s 749 mmHg 75%
02:00 0°C° 0 mm 8 m/s 749 mmHg 77%
03:00 0°C° 0 mm 8 m/s 749 mmHg 78%
04:00 0°C° 0 mm 8 m/s 749 mmHg 80%
05:00 -1°C° 0 mm 8 m/s 749 mmHg 83%
06:00 -1°C° 0 mm 7 m/s 749 mmHg 85%
07:00 -1°C° 0 mm 7 m/s 749 mmHg 85%
08:00 0°C° 0 mm 7 m/s 749 mmHg 85%
09:00 +1°C° 0 mm 6 m/s 749 mmHg 85%
10:00 +2°C° 0 mm 6 m/s 750 mmHg 83%
11:00 +3°C° 0 mm 7 m/s 750 mmHg 81%
12:00 +3°C° 0 mm 7 m/s 750 mmHg 80%
13:00 +3°C° 0 mm 6 m/s 750 mmHg 82%
14:00 +3°C° 0 mm 6 m/s 750 mmHg 85%
15:00 +3°C° 0 mm 6 m/s 750 mmHg 87%
16:00 +3°C° 0.5 mm 5 m/s 751 mmHg 90%
17:00 +4°C° 0.5 mm 4 m/s 751 mmHg 92%
18:00 +3°C° 0.5 mm 3 m/s 751 mmHg 94%
19:00 +4°C° 0.7 mm 2 m/s 751 mmHg 94%
20:00 +4°C° 0.7 mm 2 m/s 751 mmHg 95%
21:00 +4°C° 0.7 mm 2 m/s 752 mmHg 95%
22:00 +5°C° 0.5 mm 1 m/s 751 mmHg 96%
23:00 +4°C° 0.5 mm 1 m/s 751 mmHg 96%

Amanhã, 6 Março, Sábado

Tempo Temperatura Precipitação Vento Pressão Humidade
00:00 +4°C° 0.5 mm 1 m/s 751 mmHg 97%
01:00 +4°C° 0.8 mm 1 m/s 751 mmHg 97%
02:00 +4°C° 0.8 mm 1 m/s 751 mmHg 97%
03:00 +3°C° 0.8 mm 2 m/s 751 mmHg 97%
04:00 +3°C° 1 mm 2 m/s 750 mmHg 97%
05:00 +3°C° 1 mm 2 m/s 750 mmHg 97%
06:00 +2°C° 1 mm 3 m/s 749 mmHg 97%
07:00 +1°C° 1 mm 3 m/s 749 mmHg 96%
08:00 0°C° 1 mm 4 m/s 749 mmHg 96%
09:00 -1°C° 1 mm 5 m/s 749 mmHg 96%
10:00 -1°C° 0.4 mm 5 m/s 749 mmHg 95%
11:00 -1°C° 0.4 mm 5 m/s 749 mmHg 95%
12:00 -1°C° 0.4 mm 5 m/s 749 mmHg 95%
13:00 -2°C° 0.4 mm 6 m/s 749 mmHg 92%
14:00 -2°C° 0.4 mm 6 m/s 749 mmHg 90%
15:00 -3°C° 0.4 mm 7 m/s 749 mmHg 88%
16:00 -3°C° 0.1 mm 7 m/s 750 mmHg 88%
17:00 -3°C° 0.1 mm 6 m/s 751 mmHg 88%
18:00 -4°C° 0.1 mm 6 m/s 751 mmHg 88%
19:00 -4°C° 0.2 mm 6 m/s 752 mmHg 86%
20:00 -6°C° 0.2 mm 7 m/s 753 mmHg 84%
21:00 -6°C° 0.2 mm 7 m/s 754 mmHg 82%
22:00 -7°C° 0 mm 7 m/s 754 mmHg 81%
23:00 -7°C° 0 mm 7 m/s 755 mmHg 79%

Depois de amanhã, 7 Março, Domingo

Tempo Temperatura Precipitação Vento Pressão Humidade
00:00 -8°C° 0 mm 6 m/s 755 mmHg 77%
01:00 -8°C° 0 mm 6 m/s 756 mmHg 76%
02:00 -8°C° 0 mm 6 m/s 756 mmHg 75%
03:00 -8°C° 0 mm 6 m/s 757 mmHg 75%
04:00 -8°C° 0 mm 6 m/s 757 mmHg 74%
05:00 -7°C° 0 mm 5 m/s 758 mmHg 73%
06:00 -7°C° 0 mm 5 m/s 758 mmHg 73%
07:00 -7°C° 0 mm 5 m/s 758 mmHg 69%
08:00 -6°C° 0 mm 5 m/s 758 mmHg 66%
09:00 -6°C° 0 mm 5 m/s 758 mmHg 62%
10:00 -5°C° 0 mm 5 m/s 758 mmHg 59%
11:00 -4°C° 0 mm 6 m/s 758 mmHg 56%
12:00 -3°C° 0 mm 6 m/s 757 mmHg 53%
13:00 -2°C° 0 mm 6 m/s 756 mmHg 52%
14:00 -1°C° 0 mm 7 m/s 756 mmHg 51%
15:00 -1°C° 0 mm 8 m/s 755 mmHg 50%
16:00 -1°C° 0 mm 7 m/s 754 mmHg 53%
17:00 -2°C° 0 mm 6 m/s 754 mmHg 56%
18:00 -3°C° 0 mm 6 m/s 753 mmHg 59%
19:00 -3°C° 0 mm 6 m/s 753 mmHg 58%
20:00 -3°C° 0 mm 7 m/s 753 mmHg 58%
21:00 -4°C° 0 mm 7 m/s 753 mmHg 57%
22:00 -4°C° 0 mm 7 m/s 752 mmHg 59%
23:00 -4°C° 0 mm 7 m/s 752 mmHg 60%

8 Março, Segunda-feira

Tempo Temperatura Precipitação Vento Pressão Humidade
00:00 -4°C° 0 mm 7 m/s 752 mmHg 62%
01:00 -4°C° 0 mm 7 m/s 751 mmHg 63%
02:00 -4°C° 0 mm 7 m/s 751 mmHg 65%
03:00 -4°C° 0 mm 7 m/s 751 mmHg 67%
04:00 -4°C° 0 mm 7 m/s 751 mmHg 67%
05:00 -4°C° 0 mm 7 m/s 751 mmHg 67%
06:00 -4°C° 0 mm 7 m/s 750 mmHg 68%
07:00 -4°C° 0 mm 8 m/s 750 mmHg 67%
08:00 -4°C° 0 mm 8 m/s 750 mmHg 66%
09:00 -3°C° 0 mm 9 m/s 750 mmHg 64%
10:00 -1°C° 0 mm 9 m/s 750 mmHg 63%
11:00 -1°C° 0 mm 9 m/s 750 mmHg 61%
12:00 0°C° 0 mm 9 m/s 750 mmHg 59%
13:00 +1°C° 0 mm 9 m/s 750 mmHg 60%
14:00 +1°C° 0 mm 9 m/s 750 mmHg 60%
15:00 +1°C° 0 mm 8 m/s 749 mmHg 60%
16:00 0°C° 0 mm 7 m/s 749 mmHg 64%
17:00 +1°C° 0 mm 6 m/s 749 mmHg 69%
18:00 0°C° 0 mm 4 m/s 749 mmHg 73%
19:00 -1°C° 0 mm 4 m/s 750 mmHg 76%
20:00 -1°C° 0 mm 4 m/s 750 mmHg 79%
21:00 -1°C° 0 mm 4 m/s 750 mmHg 83%
22:00 -1°C° 0 mm 3 m/s 751 mmHg 85%
23:00 -1°C° 0 mm 3 m/s 751 mmHg 88%

9 Março, Terça-feira

Tempo Temperatura Precipitação Vento Pressão Humidade
00:00 -1°C° 0 mm 3 m/s 751 mmHg 90%
01:00 -2°C° 0.1 mm 3 m/s 751 mmHg 91%
02:00 -2°C° 0.1 mm 2 m/s 751 mmHg 93%
03:00 -2°C° 0.1 mm 2 m/s 751 mmHg 94%
04:00 -3°C° 0.1 mm 2 m/s 751 mmHg 94%
05:00 -3°C° 0.1 mm 2 m/s 751 mmHg 94%
06:00 -3°C° 0.1 mm 2 m/s 751 mmHg 94%
07:00 -3°C° 0.2 mm 2 m/s 751 mmHg 93%
08:00 -4°C° 0.2 mm 3 m/s 751 mmHg 92%
09:00 -2°C° 0.2 mm 3 m/s 751 mmHg 91%
10:00 -2°C° 0.3 mm 3 m/s 751 mmHg 91%
11:00 -1°C° 0.3 mm 3 m/s 750 mmHg 91%
12:00 -2°C° 0.3 mm 4 m/s 750 mmHg 91%
13:00 -2°C° 0.5 mm 4 m/s 750 mmHg 92%
14:00 -2°C° 0.5 mm 4 m/s 750 mmHg 92%
15:00 -1°C° 0.5 mm 4 m/s 750 mmHg 93%
16:00 -4°C° 1.1 mm 5 m/s 750 mmHg 92%
17:00 -5°C° 1.1 mm 6 m/s 750 mmHg 92%
18:00 -7°C° 1.1 mm 8 m/s 750 mmHg 91%
19:00 -8°C° 0.2 mm 7 m/s 751 mmHg 91%
20:00 -8°C° 0.2 mm 6 m/s 752 mmHg 91%
21:00 -8°C° 0.2 mm 5 m/s 752 mmHg 91%
22:00 -8°C° 0 mm 5 m/s 753 mmHg 90%
23:00 -10°C° 0 mm 5 m/s 753 mmHg 89%

10 Março, Quarta-feira

Tempo Temperatura Precipitação Vento Pressão Humidade
00:00 -9°C° 0 mm 4 m/s 754 mmHg 88%
01:00 -9°C° 0 mm 4 m/s 754 mmHg 87%
02:00 -10°C° 0 mm 4 m/s 755 mmHg 87%
03:00 -10°C° 0 mm 4 m/s 755 mmHg 86%
04:00 -11°C° 0 mm 4 m/s 756 mmHg 86%
05:00 -11°C° 0 mm 4 m/s 756 mmHg 86%
06:00 -11°C° 0 mm 4 m/s 757 mmHg 86%
07:00 -11°C° 0 mm 4 m/s 757 mmHg 83%
08:00 -12°C° 0 mm 5 m/s 758 mmHg 80%
09:00 -12°C° 0 mm 5 m/s 759 mmHg 77%
10:00 -12°C° 0 mm 5 m/s 759 mmHg 75%
11:00 -11°C° 0 mm 5 m/s 760 mmHg 73%
12:00 -11°C° 0 mm 5 m/s 760 mmHg 72%
13:00 -11°C° 0 mm 5 m/s 760 mmHg 70%
14:00 -11°C° 0 mm 5 m/s 760 mmHg 69%
15:00 -10°C° 0 mm 5 m/s 761 mmHg 68%
16:00 -10°C° 0 mm 4 m/s 761 mmHg 69%
17:00 -9°C° 0 mm 3 m/s 761 mmHg 70%
18:00 -10°C° 0 mm 3 m/s 761 mmHg 71%
19:00 -10°C° 0 mm 3 m/s 761 mmHg 70%
20:00 -9°C° 0 mm 2 m/s 761 mmHg 70%
21:00 -9°C° 0 mm 2 m/s 762 mmHg 69%
22:00 -9°C° 0 mm 2 m/s 762 mmHg 69%
23:00 -9°C° 0 mm 2 m/s 762 mmHg 69%
Mostrar mais

Necessitamos do seu Consentimento

A Meteoprog e os seus Fornecedores de Serviços podem armazenar e aceder a dados pessoais como cookies, identificadores do dispositivo ou outras tecnologias semelhantes existentes no seu dispositivo e processar estes dados para personalizar conteúdos e anúncios, assim como funcionalidades nas redes sociais e análise de tráfego.

  • Armazenar e/ou aceder a informações no seu dispositivo

    Os cookies, identificadores do dispositivo ou outras informações podem ser armazenados ou acedidos no seu dispositivo, para os fins acima indicados.

  • Anúncios e conteúdos personalizados, medição de anúncios e conteúdos, dados sobre o público-alvo e desenvolvimento de produtos

    Os anúncios e os conteúdos podem ser personalizados com base num perfil. Podem ser adicionados dados adicionais para uma maior personalização dos anúncios e dos conteúdos. A eficácia dos anúncios e dos conteúdos pode ser medida. Podem ser obtidas informações sobre o público que visualizou os anúncios e os conteúdos. Estes dados podem ser usados para desenvolver ou melhorar sistemas, softwares ou a experiência do utilizador.

Ao clicar em "Eu concordo”, permitirá o uso de cookies, identificadores do dispositivo e web beacons mencionados ou outras tecnologias semelhantes. As configurações do navegador do seu dispositivo podem ser alteradas.

Para certos fins, podem ser invocados interesses legítimos ao invés de consentimento. Pode ler mais informação sobre este assunto na nossa Política de Privacidade e Cookies.